Temp
-8 -8 -8 -8 -8 -8 -9 -8 -7 -8 -8 -9 -8 -8 -8 -8 -9 -9 -9 -9 -9 -9 -10 -10 -10 -10 -10 -10 -9 -9 -9 -9 -8 -8 -8 -8 -8 -8 -8 -8 -7 -7 -7
-8 -8 -8 -8 -8 -8 -8 -9 -9 -9 -8 -8 -8 -8 -8 -9 -9 -10 -9 -10 -10 -10 -10 -10 -10 -10 -10 -10 -10 -9 -9 -10 -9 -8 -10 -10 -9 -9 -8 -9 -9 -8 -8
-8 -7 -8 -7 -7 -8 -9 -8 -9 -9 -8 -8 -9 -9 -9 -9 -9 -9 -10 -10 -10 -10 -10 -10 -10 -11 -11 -11 -11 -11 -12 -12 -12 -11 -11 -11 -11 -11 -11 -10 -10 -10 -9
-7 -8 -8 -8 -8 -8 -8 -9 -9 -9 -9 -9 -9 -9 -9 -9 -10 -10 -10 -10 -10 -11 -11 -12 -12 -12 -12 -12 -12 -12 -12 -12 -12 -12 -12 -12 -12 -12 -11 -11 -10 -10 -10
-8 -8 -8 -8 -9 -9 -9 -9 -9 -9 -9 -9 -9 -9 -9 -10 -10 -10 -11 -11 -11 -12 -12 -13 -12 -12 -12 -12 -12 -12 -12 -12 -13 -13 -12 -12 -12 -12 -12 -11 -11 -10 -10
-8 -8 -9 -9 -9 -9 -9 -9 -9 -9 -9 -9 -9 -10 -10 -11 -11 -11 -12 -12 -13 -13 -13 -12 -12 -12 -13 -13 -13 -13 -13 -13 -13 -13 -13 -13 -12 -12 -12 -11 -11 -11 -10
-9 -9 -9 -9 -9 -9 -9 -9 -9 -9 -9 -10 -10 -11 -11 -12 -12 -12 -12 -13 -13 -13 -12 -12 -13 -13 -13 -13 -13 -13 -13 -13 -13 -13 -13 -13 -13 -13 -13 -12 -12 -11 -11
-9 -8 -8 -9 -9 -9 -9 -9 -9 -10 -10 -11 -11 -11 -11 -12 -12 -12 -12 -12 -12 -13 -13 -13 -13 -13 -13 -13 -13 -13 -14 -14 -14 -14 -14 -14 -14 -14 -13 -13 -12 -12 -11
-8 -8 -8 -8 -9 -9 -9 -9 -9 -10 -10 -11 -11 -11 -11 -12 -12 -12 -12 -13 -13 -14 -14 -14 -14 -14 -13 -13 -13 -14 -14 -14 -14 -14 -14 -14 -14 -13 -13 -13 -12 -12 -11
-8 -8 -9 -9 -9 -9 -9 -9 -9 -10 -10 -11 -11 -11 -12 -12 -13 -13 -13 -13 -13 -14 -14 -14 -14 -14 -13 -13 -14 -14 -14 -14 -14 -14 -14 -14 -14 -13 -13 -12 -12 -12 -12
-9 -9 -9 -9 -9 -9 -9 -9 -10 -10 -11 -11 -12 -13 -13 -13 -13 -14 -14 -14 -14 -14 -14 -14 -14 -14 -14 -14 -14 -14 -14 -14 -14 -14 -14 -14 -14 -13 -13 -12 -12 -11 -11
-10 -10 -9 -10 -10 -9 -10 -10 -11 -11 -12 -13 -13 -13 -13 -13 -14 -14 -14 -14 -14 -14 -14 -14 -14 -14 -14 -14 -14 -14 -14 -14 -14 -14 -14 -13 -13 -12 -12 -12 -11 -11 -11
-10 -10 -10 -10 -10 -10 -11 -11 -12 -13 -13 -13 -13 -13 -14 -14 -14 -15 -15 -14 -14 -14 -14 -14 -14 -14 -14 -14 -14 -14 -14 -14 -14 -14 -14 -14 -13 -12 -11 -11 -11 -11 -11
-10 -10 -10 -10 -11 -11 -12 -12 -13 -13 -13 -13 -13 -14 -14 -14 -15 -15 -15 -15 -15 -15 -14 -14 -14 -14 -14 -14 -14 -14 -14 -14 -14 -14 -14 -13 -12 -11 -11 -10 -11 -10 -11
-10 -11 -11 -11 -12 -12 -13 -13 -13 -13 -13 -13 -14 -14 -15 -15 -15 -15 -15 -15 -15 -15 -14 -14 -14 -14 -14 -14 -14 -14 -14 -14 -15 -14 -15 -13 -12 -11 -11 -11 -11 -11 -10
-11 -11 -11 -12 -12 -13 -13 -13 -13 -13 -13 -14 -15 -15 -15 -15 -15 -15 -15 -15 -15 -15 -14 -15 -14 -14 -14 -14 -14 -14 -14 -14 -14 -14 -14 -13 -12 -12 -11 -11 -11 -11 -11
-11 -12 -12 -13 -13 -13 -13 -13 -14 -14 -15 -15 -16 -16 -15 -16 -15 -16 -16 -16 -15 -15 -15 -15 -15 -15 -14 -14 -14 -14 -14 -14 -14 -14 -14 -13 -13 -12 -11 -11 -11 -11 -11
-12 -12 -13 -13 -13 -13 -13 -14 -15 -15 -16 -16 -16 -16 -16 -17 -16 -16 -16 -16 -16 -16 -15 -15 -15 -15 -15 -14 -14 -14 -14 -14 -14 -14 -14 -13 -13 -12 -12 -11 -12 -12 -12
-13 -13 -13 -13 -13 -13 -14 -14 -15 -16 -16 -16 -16 -17 -18 -18 -18 -18 -17 -17 -16 -16 -16 -16 -15 -15 -15 -15 -14 -14 -14 -14 -14 -14 -14 -14 -13 -13 -13 -12 -12 -12 -12
-13 -14 -14 -14 -14 -14 -15 -15 -16 -16 -16 -16 -17 -18 -19 -20 -21 -20 -18 -17 -17 -17 -17 -16 -16 -16 -16 -15 -15 -15 -14 -14 -14 -14 -14 -14 -14 -13 -13 -13 -11 -12 -12
-14 -14 -14 -14 -14 -15 -15 -16 -16 -16 -16 -16 -17 -18 -18 -19 -19 -19 -18 -18 -18 -17 -17 -16 -16 -16 -16 -16 -16 -15 -15 -14 -14 -14 -14 -13 -13 -13 -14 -13 -12 -12 -12
-14 -14 -14 -14 -15 -15 -16 -16 -16 -16 -16 -16 -16 -17 -18 -18 -18 -18 -18 -17 -17 -17 -16 -16 -16 -16 -16 -16 -16 -15 -15 -15 -14 -14 -14 -13 -13 -13 -13 -14 -14 -13 -12
-14 -14 -14 -15 -15 -16 -16 -16 -16 -16 -16 -16 -16 -16 -17 -18 -17 -17 -17 -17 -17 -17 -16 -16 -16 -16 -16 -16 -16 -15 -15 -15 -15 -14 -14 -14 -13 -13 -13 -13 -13 -13 -13
-15 -14 -14 -15 -16 -16 -16 -16 -16 -16 -16 -16 -16 -16 -17 -17 -17 -17 -17 -18 -17 -16 -17 -17 -16 -16 -16 -15 -15 -15 -15 -15 -15 -15 -15 -14 -14 -14 -13 -13 -13 -13 -12
-15 -15 -15 -15 -16 -16 -16 -16 -16 -16 -17 -16 -16 -16 -16 -17 -17 -17 -17 -17 -17 -17 -16 -16 -16 -16 -16 -16 -16 -16 -16 -16 -15 -15 -15 -15 -15 -15 -14 -14 -14 -13 -13
-15 -15 -15 -16 -16 -16 -17 -17 -16 -17 -17 -17 -16 -16 -16 -16 -16 -16 -17 -17 -17 -17 -17 -17 -17 -16 -16 -16 -16 -16 -16 -16 -16 -16 -16 -16 -15 -15 -15 -15 -15 -14 -14
Height
5909 5907 5906 5901 5897 5891 5886 5885 5883 5882 5880 5877 5874 5870 5864 5857 5852 5848 5842 5836 5833 5829 5824 5818 5812 5805 5802 5799 5794 5790 5785 5781 5779 5781 5778 5779 5778 5775 5774 5774 5775 5777 5781
5907 5903 5900 5894 5892 5890 5885 5882 5879 5875 5872 5869 5865 5861 5856 5848 5842 5837 5831 5825 5821 5816 5810 5802 5796 5792 5788 5784 5779 5774 5768 5763 5760 5760 5760 5758 5758 5758 5757 5757 5758 5759 5763
5901 5898 5894 5891 5887 5880 5876 5875 5872 5870 5866 5860 5855 5850 5844 5838 5832 5825 5820 5815 5808 5801 5793 5788 5784 5778 5773 5768 5762 5758 5752 5747 5743 5741 5744 5740 5741 5740 5739 5740 5740 5743 5745
5897 5891 5885 5882 5878 5875 5871 5869 5865 5861 5854 5849 5843 5838 5832 5825 5819 5813 5807 5801 5793 5786 5780 5775 5769 5764 5758 5753 5748 5743 5738 5732 5728 5726 5726 5724 5723 5723 5723 5724 5725 5726 5730
5887 5883 5879 5873 5869 5867 5865 5861 5855 5848 5843 5836 5832 5824 5818 5812 5805 5799 5793 5785 5779 5774 5768 5761 5755 5749 5743 5737 5731 5727 5721 5717 5713 5710 5710 5709 5707 5705 5705 5706 5708 5709 5712
5878 5873 5870 5867 5863 5859 5853 5846 5840 5835 5830 5825 5817 5811 5804 5797 5790 5784 5777 5772 5766 5759 5753 5748 5741 5735 5728 5721 5715 5709 5704 5700 5695 5693 5693 5693 5690 5688 5688 5689 5690 5691 5697
5869 5866 5864 5860 5854 5848 5841 5835 5828 5821 5814 5808 5801 5796 5790 5784 5778 5770 5764 5757 5751 5744 5738 5733 5728 5719 5712 5706 5700 5693 5687 5681 5676 5673 5673 5673 5672 5670 5671 5673 5672 5674 5679
5863 5857 5851 5846 5840 5832 5825 5819 5814 5807 5801 5795 5790 5784 5777 5769 5763 5757 5752 5745 5738 5730 5724 5718 5712 5706 5698 5691 5684 5676 5670 5667 5664 5661 5660 5659 5658 5657 5657 5658 5657 5658 5661
5851 5845 5838 5830 5824 5818 5814 5808 5803 5798 5792 5785 5777 5772 5766 5759 5751 5745 5740 5733 5726 5719 5711 5705 5699 5693 5686 5679 5672 5666 5663 5659 5655 5652 5650 5648 5647 5644 5643 5642 5644 5642 5644
5841 5835 5828 5822 5816 5810 5805 5800 5794 5788 5782 5775 5766 5759 5751 5746 5739 5733 5727 5722 5716 5708 5700 5694 5688 5681 5673 5666 5662 5659 5656 5652 5648 5644 5640 5637 5634 5632 5630 5627 5626 5628 5627
5833 5828 5823 5817 5811 5805 5799 5791 5784 5775 5768 5761 5753 5747 5742 5736 5728 5721 5715 5709 5704 5697 5689 5683 5677 5671 5664 5656 5653 5651 5649 5645 5641 5637 5633 5628 5624 5618 5615 5612 5608 5609 5612
5826 5820 5814 5808 5801 5794 5786 5778 5771 5764 5758 5751 5744 5737 5730 5723 5717 5710 5703 5698 5691 5685 5680 5675 5671 5665 5658 5652 5648 5646 5644 5641 5637 5632 5627 5620 5611 5605 5600 5595 5594 5594 5598
5816 5809 5802 5796 5789 5782 5775 5768 5761 5755 5749 5741 5735 5727 5719 5713 5706 5700 5695 5689 5683 5677 5673 5670 5665 5660 5654 5650 5647 5644 5641 5637 5631 5625 5616 5607 5598 5593 5588 5585 5584 5585 5588
5804 5798 5792 5784 5777 5771 5764 5757 5751 5745 5739 5732 5725 5717 5710 5704 5698 5693 5688 5682 5677 5671 5666 5662 5657 5652 5649 5646 5644 5640 5636 5631 5624 5617 5607 5598 5591 5586 5583 5580 5578 5579 5582
5795 5788 5780 5773 5766 5760 5754 5748 5743 5736 5730 5723 5715 5708 5702 5695 5690 5685 5681 5676 5670 5665 5659 5654 5650 5646 5643 5642 5640 5636 5632 5627 5619 5612 5603 5594 5587 5583 5580 5577 5575 5575 5576
5785 5778 5771 5765 5759 5752 5747 5741 5734 5726 5719 5712 5704 5698 5691 5686 5680 5675 5670 5665 5661 5656 5652 5648 5645 5642 5639 5638 5636 5633 5629 5623 5617 5609 5600 5592 5585 5578 5577 5575 5573 5574 5574
5775 5769 5763 5757 5752 5746 5738 5730 5722 5715 5708 5702 5694 5686 5679 5672 5666 5661 5658 5655 5652 5649 5645 5643 5641 5636 5635 5634 5632 5630 5626 5621 5614 5607 5600 5591 5584 5579 5574 5572 5573 5572 5572
5766 5760 5755 5750 5744 5739 5732 5724 5716 5708 5700 5692 5682 5672 5663 5654 5649 5646 5645 5645 5644 5642 5640 5638 5636 5633 5631 5630 5629 5627 5622 5618 5613 5607 5600 5592 5585 5579 5575 5572 5572 5571 5572
5757 5752 5747 5742 5737 5731 5725 5717 5710 5703 5695 5684 5670 5658 5646 5636 5631 5630 5632 5635 5636 5637 5635 5634 5632 5630 5628 5626 5626 5623 5620 5617 5613 5607 5600 5594 5586 5580 5576 5573 5570 5570 5570
5749 5744 5739 5735 5730 5724 5717 5711 5705 5698 5689 5678 5665 5651 5638 5627 5620 5619 5624 5628 5631 5632 5631 5630 5629 5627 5625 5623 5621 5620 5618 5616 5611 5606 5602 5596 5590 5583 5579 5575 5569 5569 5569
5743 5739 5733 5727 5721 5716 5711 5706 5701 5693 5685 5675 5664 5652 5640 5630 5624 5622 5624 5628 5629 5629 5628 5627 5626 5624 5622 5621 5619 5618 5616 5614 5611 5607 5603 5598 5593 5589 5583 5577 5574 5569 5570
5735 5731 5727 5721 5715 5710 5705 5701 5696 5690 5682 5673 5664 5654 5645 5638 5632 5629 5627 5629 5629 5628 5627 5625 5624 5623 5622 5620 5618 5616 5614 5611 5609 5606 5603 5599 5595 5591 5588 5582 5579 5574 5573
5729 5725 5721 5715 5709 5704 5701 5697 5693 5687 5681 5673 5665 5657 5649 5641 5636 5634 5632 5631 5629 5628 5626 5623 5622 5621 5620 5619 5617 5615 5612 5609 5607 5604 5602 5599 5596 5592 5589 5586 5585 5579 5576
5722 5718 5714 5709 5704 5700 5696 5693 5689 5684 5679 5673 5666 5659 5653 5648 5642 5638 5635 5633 5632 5629 5627 5626 5624 5622 5620 5618 5615 5613 5610 5608 5605 5603 5600 5598 5595 5592 5590 5588 5586 5583 5582
5714 5710 5706 5702 5698 5695 5692 5689 5686 5682 5678 5673 5667 5662 5656 5651 5647 5643 5640 5637 5634 5631 5629 5627 5624 5621 5619 5617 5615 5611 5608 5606 5602 5600 5597 5594 5591 5589 5588 5586 5585 5583 5579
5707 5703 5699 5695 5692 5689 5686 5685 5682 5679 5675 5672 5668 5663 5659 5655 5651 5646 5643 5639 5636 5633 5631 5628 5625 5622 5620 5617 5613 5611 5607 5603 5600 5597 5593 5589 5586 5584 5582 5581 5580 5579 5578
Wind_Speed
34 34 32 31 30 32 26 24 26 29 30 36 42 40 42 42 41 46 47 47 50 51 51 50 48 48 49 50 49 50 50 51 55 52 49 48 49 51 53 54 55 54 52
33 36 36 34 33 33 31 32 35 36 37 39 42 42 41 41 44 47 47 50 52 53 51 50 50 51 50 50 51 52 53 54 56 56 50 48 49 50 54 55 55 56 56
35 36 37 37 38 37 36 37 39 40 43 42 42 41 42 44 46 49 51 53 52 51 52 52 52 50 50 50 50 50 50 52 51 53 49 48 47 48 51 53 54 54 56
38 39 41 40 39 38 40 41 41 43 42 42 42 44 45 47 50 52 50 51 51 52 52 49 47 48 49 49 48 48 48 48 51 50 47 48 48 49 49 52 53 55 53
43 42 42 42 42 41 40 41 42 42 42 42 44 47 50 51 51 50 50 50 50 47 46 46 47 49 50 52 52 51 51 52 51 50 48 50 49 48 49 50 51 54 55
46 45 44 44 43 44 44 44 44 44 45 48 50 50 49 49 49 50 50 45 45 45 46 48 50 51 52 53 54 52 52 50 51 51 51 50 53 52 50 49 49 52 52
48 47 45 46 46 46 46 46 47 49 52 54 53 50 49 48 49 46 44 45 48 50 51 52 52 52 53 52 55 55 59 59 57 53 47 45 47 49 49 50 52 52 51
56 54 53 51 51 50 51 53 54 55 56 52 50 49 50 51 48 46 47 50 51 53 54 53 52 52 54 56 56 51 39 31 31 35 36 34 35 39 41 41 45 47 48
60 58 58 56 55 54 54 55 58 58 54 53 53 52 51 49 48 49 50 52 53 53 54 54 52 50 52 52 52 35 29 29 32 32 32 32 34 36 38 40 40 42 44
60 58 57 56 55 55 56 58 57 54 54 53 55 54 49 48 51 53 54 55 54 52 53 51 50 50 50 54 42 32 30 31 32 34 36 35 37 39 41 42 43 43 45
57 54 53 52 53 53 56 55 55 56 56 54 50 48 49 51 53 54 54 53 50 50 49 47 46 46 51 37 27 28 25 13 14 18 22 27 35 40 45 47 46 42 43
54 53 53 54 54 56 54 52 54 53 49 46 47 50 53 53 53 53 50 48 48 45 44 40 39 38 35 20 10 10 16 18 23 29 32 41 43 47 40 43 38 32 33
55 54 55 56 57 52 51 52 51 47 46 48 51 52 53 53 49 45 43 43 44 43 38 34 34 37 25 22 14 17 20 25 29 34 33 37 35 34 23 27 25 19 23
55 55 57 55 50 50 51 49 46 47 49 51 52 54 52 47 42 39 41 43 43 39 36 31 29 30 19 17 13 20 27 30 34 35 37 36 30 22 17 19 22 22 23
54 57 51 49 50 50 46 45 47 49 51 54 54 49 45 43 42 42 41 41 40 34 30 28 25 28 16 11 14 23 29 33 33 35 37 31 28 21 16 17 12 14 17
56 51 49 48 46 43 45 46 48 52 54 51 47 46 46 46 47 46 43 40 36 33 26 23 22 19 10 12 20 26 28 31 32 32 35 27 25 27 12 12 12 12 14
51 47 46 43 41 43 46 49 53 51 47 46 47 49 50 49 47 45 39 33 29 27 24 20 20 19 20 21 22 23 26 26 30 31 36 24 20 19 8 11 10 9 9
45 44 44 41 41 42 45 48 45 42 45 50 52 54 55 51 44 41 35 28 23 20 16 15 15 17 16 19 19 20 23 25 27 29 34 30 19 19 11 12 10 7 7
44 43 40 39 40 43 45 42 38 39 47 50 55 53 50 45 38 33 25 19 15 16 11 12 16 15 13 14 16 21 18 20 21 24 29 34 27 11 13 8 7 7 7
42 38 37 39 42 42 40 35 34 39 44 48 46 43 43 36 25 14 11 10 9 13 14 13 15 13 13 13 14 15 14 13 18 23 26 29 32 29 10 7 15 7 9
36 34 38 41 41 39 33 31 32 37 40 42 45 44 39 29 19 8 5 4 7 10 14 9 12 13 10 10 7 7 7 13 16 20 23 25 26 27 28 22 16 9 17
33 35 37 40 38 34 30 27 30 34 35 39 35 41 33 27 17 5 4 2 5 11 14 12 7 10 15 11 9 8 12 15 16 18 20 22 24 23 24 25 26 6 5
33 36 38 37 33 29 26 24 27 30 30 34 34 31 32 30 15 10 10 9 10 8 8 9 8 12 15 11 12 15 18 18 18 19 18 18 18 21 21 22 18 13 11
33 35 37 33 30 27 23 22 24 26 27 28 31 29 26 25 24 14 16 15 13 14 13 13 12 12 12 12 13 14 16 18 19 19 20 19 18 18 18 17 16 16 12
32 35 34 30 28 25 21 20 21 22 23 23 24 25 24 21 18 16 15 15 16 16 16 16 15 16 17 16 16 17 18 20 21 23 23 24 24 22 20 19 16 14 16
33 33 31 29 26 24 21 20 19 19 19 20 18 18 19 18 17 16 16 16 17 17 17 18 18 18 18 19 19 19 19 20 21 22 23 24 25 25 25 23 19 18 14
Wind_Direction
331 330 328 325 325 326 342 326 316 303 287 283 295 299 301 305 302 300 303 307 307 307 306 303 302 300 295 293 291 290 289 289 291 288 283 276 270 267 265 265 265 263 261
328 322 321 322 320 322 323 316 305 304 300 296 297 300 301 303 302 302 306 306 306 306 304 303 302 298 296 293 291 290 290 288 288 287 282 277 272 267 263 262 261 260 258
325 322 321 320 320 323 319 311 305 300 299 298 301 303 303 301 304 306 306 307 305 304 304 302 299 298 297 296 294 294 292 289 287 285 282 277 272 269 265 262 260 260 258
319 322 321 320 320 317 312 308 303 299 301 301 306 306 306 308 307 306 306 304 305 303 301 300 300 299 298 295 294 294 289 286 285 283 278 275 273 269 265 262 260 260 256
324 322 320 320 316 312 306 303 304 306 307 308 308 310 310 307 305 304 303 304 303 301 301 302 302 300 299 301 296 295 293 290 287 282 279 274 273 272 266 266 261 256 257
325 323 320 315 312 310 310 311 311 312 312 312 313 312 309 306 303 304 305 304 302 303 302 302 303 303 302 302 302 296 296 292 286 284 279 276 272 273 267 265 263 257 253
323 319 315 311 310 310 313 315 316 317 317 317 314 311 309 306 306 306 307 307 306 305 306 305 306 305 304 305 304 300 296 293 288 283 277 273 270 267 262 263 265 261 255
321 318 317 316 315 318 319 318 318 318 316 315 313 311 311 311 310 308 306 306 308 308 307 306 307 306 307 306 309 303 298 292 285 279 278 271 269 268 267 264 263 263 259
320 319 318 318 319 319 317 317 316 313 312 314 315 314 310 307 308 307 308 309 309 308 307 306 306 306 306 309 312 299 292 283 277 278 279 277 274 271 268 266 266 265 259
319 318 317 316 314 315 314 313 312 312 312 313 313 311 310 309 308 309 310 310 309 308 305 304 304 308 309 310 303 294 295 291 289 288 286 284 284 281 277 276 270 262 259
316 315 313 311 310 309 309 310 311 313 313 313 310 308 308 310 310 311 310 310 310 308 307 305 305 309 313 306 294 290 293 299 306 301 290 283 284 282 282 280 276 267 256
313 312 311 311 312 312 312 313 314 313 312 310 309 310 311 311 312 311 312 314 312 310 310 307 306 310 312 323 309 307 311 309 300 305 303 301 292 290 287 278 279 270 249
313 312 312 313 314 313 314 313 312 312 311 310 310 311 312 313 312 312 315 316 316 311 311 308 306 311 305 322 307 316 318 317 313 313 316 309 304 304 297 284 269 265 247
311 312 312 313 313 314 313 312 312 311 310 310 311 311 311 310 309 309 312 313 314 311 309 306 307 314 304 302 313 331 329 329 329 333 336 326 325 319 319 302 277 257 244
309 312 313 314 314 313 312 312 311 310 310 310 310 310 310 307 305 307 308 308 307 308 304 304 317 319 295 300 317 322 330 333 335 338 342 328 328 322 294 309 282 266 240
309 311 311 311 311 312 311 311 312 311 311 312 313 312 310 306 303 302 303 303 305 310 307 305 313 302 293 306 308 316 328 334 334 343 350 339 333 334 317 344 281 270 266
307 309 309 309 310 312 314 315 315 315 316 316 316 316 312 307 302 300 299 300 301 304 303 304 312 314 272 289 306 317 331 336 335 349 350 353 348 337 277 313 296 268 270
308 308 308 309 311 313 314 316 318 318 322 322 320 318 314 308 300 295 294 292 295 299 301 315 325 327 304 286 296 313 332 337 341 350 354 7 6 340 326 307 302 284 265
306 307 308 309 312 314 317 319 321 325 329 330 326 325 322 311 298 286 280 273 281 281 310 311 332 332 333 318 300 311 329 332 346 356 1 357 6 3 1 272 286 267 236
305 307 309 311 315 317 319 321 324 329 337 339 338 343 341 337 326 302 262 250 259 276 307 310 330 330 308 302 310 318 331 342 356 360 1 1 3 9 51 28 193 265 236
305 308 312 314 317 319 319 321 326 333 340 335 347 347 347 352 356 14 72 40 279 288 295 319 322 332 332 328 330 328 341 347 354 358 358 358 3 0 10 10 356 151 220
307 309 311 316 316 317 318 321 330 337 343 346 351 3 355 2 10 54 357 334 340 334 315 303 310 352 344 330 330 332 340 345 346 344 345 351 354 359 360 8 15 79 160
308 309 312 314 314 314 315 320 328 338 344 347 351 357 2 11 4 14 0 325 339 331 334 314 314 319 316 327 325 324 327 332 334 333 336 341 344 347 355 357 14 354 31
304 308 313 313 312 311 311 315 326 334 343 349 355 359 359 12 24 28 34 44 33 24 24 22 5 359 358 351 343 339 334 332 331 330 330 331 334 336 337 341 341 342 342
307 311 313 311 309 308 306 310 320 329 341 349 356 2 7 16 19 24 26 31 32 28 23 19 15 7 359 351 343 335 331 327 327 326 324 322 323 323 322 321 323 321 321
307 311 311 308 306 306 299 298 310 320 331 340 349 357 4 7 11 14 16 15 15 12 10 9 3 358 352 348 345 343 340 339 337 333 331 330 327 323 319 314 309 304 298